Powrót do katalogu

STARLINK-1570

AktywnyŁącznośćVLEO
NORAD 46059·PAYLOAD·🇺🇸 United States

Wystrzelony Aug 7, 2020 z Cape Canaveral Space Force Station

Loading…

Następne Przeloty (najbliższe 24 godziny)

TLE

ŚwieżeSource: CelesTrak SupGP

Epoka: Sep 14, 2026, 21:02 UTC

1 46059C 20055AJ  26257.87687500 -.00018228  00000+0 -58617-3 0  2578
2 46059  53.1576 313.4811 0001094 115.6749  84.0780 15.31711629    15

Śledź STARLINK-1570 w czasie rzeczywistym z AllMySat

Download on the App Store